contact:dominique.lefevre@mio.osupytheas.fr, maurice.libes@osupytheas.fr, didier.mallarino@osupytheas.fr
Project:EMSO http://www.emso-fr.org/EMSO-France
Depth: 2436.0 m
Title:EMSO Ligure Ouest : Data MII capteur CSTAR
DateTime,Latitude,Longitude,Instrument_Serial,Reference_Counts,Signal_Counts,Corrected_Signal_raw_counts,Calculated_Beam_c_inverse_meters,Internal_thermistor_counts
DateTime,Latitude,Longitude,Instrument_Serial,Reference_Counts,Signal_Counts,Corrected_Signal_raw_counts,Calculated_Beam_c_inverse_meters,Internal_thermistor_counts
2019-05-18T00:01:06,42.805,6.029,CST-1368DR,9539,13357,15611,0.001,551
2019-05-18T00:04:08,42.805,6.029,CST-1368DR,9538,13356,15611,0.001,551
2019-05-18T00:07:09,42.805,6.029,CST-1368DR,9538,13356,15612,0.001,551
2019-05-18T00:10:10,42.805,6.029,CST-1368DR,9538,13356,15612,0.001,551
2019-05-18T00:13:12,42.805,6.029,CST-1368DR,9538,13355,15611,0.001,551
2019-05-18T00:16:13,42.805,6.029,CST-1368DR,9538,13353,15608,0.002,551
2019-05-18T00:19:15,42.805,6.029,CST-1368DR,9538,13355,15611,0.001,551
2019-05-18T00:22:16,42.805,6.029,CST-1368DR,9538,13355,15610,0.002,551
2019-05-18T00:25:17,42.805,6.029,CST-1368DR,9537,13354,15611,0.001,551
2019-05-18T00:28:19,42.805,6.029,CST-1368DR,9537,13355,15611,0.001,551
2019-05-18T00:31:20,42.805,6.029,CST-1368DR,9537,13354,15610,0.002,550
2019-05-18T00:34:22,42.805,6.029,CST-1368DR,9537,13354,15610,0.002,551
2019-05-18T00:37:23,42.805,6.029,CST-1368DR,9537,13354,15611,0.001,551
2019-05-18T00:40:24,42.805,6.029,CST-1368DR,9537,13353,15609,0.002,551
2019-05-18T00:43:26,42.805,6.029,CST-1368DR,9537,13353,15610,0.002,551
2019-05-18T00:46:27,42.805,6.029,CST-1368DR,9537,13353,15610,0.002,551
2019-05-18T00:49:29,42.805,6.029,CST-1368DR,9536,13352,15610,0.002,551
2019-05-18T00:52:30,42.805,6.029,CST-1368DR,9536,13353,15611,0.001,550
2019-05-18T00:55:31,42.805,6.029,CST-1368DR,9536,13352,15609,0.002,551
2019-05-18T00:58:33,42.805,6.029,CST-1368DR,9536,13351,15609,0.002,551
2019-05-18T01:01:34,42.805,6.029,CST-1368DR,9536,13352,15610,0.002,551
2019-05-18T01:04:36,42.805,6.029,CST-1368DR,9536,13352,15609,0.002,551
2019-05-18T01:07:37,42.805,6.029,CST-1368DR,9536,13350,15607,0.002,551
2019-05-18T01:10:39,42.805,6.029,CST-1368DR,9535,13349,15608,0.002,551
2019-05-18T01:13:40,42.805,6.029,CST-1368DR,9535,13350,15609,0.002,551
2019-05-18T01:16:41,42.805,6.029,CST-1368DR,9535,13346,15605,0.003,551
2019-05-18T01:19:43,42.805,6.029,CST-1368DR,9535,13350,15609,0.002,551
2019-05-18T01:22:44,42.805,6.029,CST-1368DR,9535,13350,15609,0.002,551
2019-05-18T01:25:46,42.805,6.029,CST-1368DR,9535,13350,15609,0.002,551
2019-05-18T01:28:47,42.805,6.029,CST-1368DR,9534,13350,15611,0.001,551
2019-05-18T01:31:48,42.805,6.029,CST-1368DR,9534,13349,15609,0.002,550
2019-05-18T01:34:50,42.805,6.029,CST-1368DR,9534,13347,15607,0.002,551
2019-05-18T01:37:51,42.805,6.029,CST-1368DR,9534,13346,15606,0.003,551
2019-05-18T01:40:53,42.805,6.029,CST-1368DR,9534,13349,15610,0.002,551
2019-05-18T01:43:54,42.805,6.029,CST-1368DR,9534,13349,15610,0.002,551
2019-05-18T01:46:55,42.805,6.029,CST-1368DR,9534,13347,15607,0.002,551
2019-05-18T01:49:57,42.805,6.029,CST-1368DR,9534,13349,15609,0.002,551
2019-05-18T01:52:58,42.805,6.029,CST-1368DR,9534,13348,15609,0.002,551
2019-05-18T01:56:00,42.805,6.029,CST-1368DR,9533,13344,15605,0.003,551
2019-05-18T01:59:01,42.805,6.029,CST-1368DR,9533,13349,15610,0.002,551
2019-05-18T02:02:02,42.805,6.029,CST-1368DR,9533,13348,15610,0.002,550
2019-05-18T02:05:04,42.805,6.029,CST-1368DR,9533,13345,15607,0.002,551
2019-05-18T02:08:05,42.805,6.029,CST-1368DR,9533,13348,15610,0.002,551
2019-05-18T02:11:07,42.805,6.029,CST-1368DR,9533,13347,15609,0.002,551
2019-05-18T02:14:08,42.805,6.029,CST-1368DR,9533,13348,15610,0.002,551
2019-05-18T02:17:10,42.805,6.029,CST-1368DR,9532,13347,15610,0.002,551
2019-05-18T02:20:11,42.805,6.029,CST-1368DR,9532,13344,15606,0.003,551
2019-05-18T02:23:12,42.805,6.029,CST-1368DR,9532,13348,15611,0.001,551
2019-05-18T02:26:14,42.805,6.029,CST-1368DR,9532,13346,15609,0.002,551
2019-05-18T02:29:15,42.805,6.029,CST-1368DR,9532,13346,15609,0.002,551
2019-05-18T02:32:17,42.805,6.029,CST-1368DR,9532,13346,15608,0.002,551
2019-05-18T02:35:18,42.805,6.029,CST-1368DR,9532,13346,15609,0.002,551
2019-05-18T02:38:19,42.805,6.029,CST-1368DR,9531,13346,15610,0.002,551
2019-05-18T02:41:21,42.805,6.029,CST-1368DR,9531,13345,15609,0.002,550
2019-05-18T02:44:22,42.805,6.029,CST-1368DR,9531,13346,15610,0.002,550
2019-05-18T02:47:24,42.805,6.029,CST-1368DR,9531,13345,15609,0.002,551
2019-05-18T02:50:25,42.805,6.029,CST-1368DR,9531,13342,15606,0.003,551
2019-05-18T02:53:26,42.805,6.029,CST-1368DR,9531,13345,15609,0.002,551
2019-05-18T02:56:28,42.805,6.029,CST-1368DR,9531,13342,15606,0.003,551
2019-05-18T02:59:29,42.805,6.029,CST-1368DR,9531,13343,15607,0.002,551
2019-05-18T03:02:31,42.805,6.029,CST-1368DR,9531,13342,15606,0.003,551
2019-05-18T03:05:32,42.805,6.029,CST-1368DR,9531,13344,15608,0.002,551
2019-05-18T03:08:34,42.805,6.029,CST-1368DR,9531,13343,15607,0.002,551
2019-05-18T03:11:35,42.805,6.029,CST-1368DR,9530,13340,15605,0.003,551
2019-05-18T03:14:36,42.805,6.029,CST-1368DR,9530,13344,15609,0.002,550
2019-05-18T03:17:38,42.805,6.029,CST-1368DR,9530,13343,15608,0.002,551
2019-05-18T03:20:39,42.805,6.029,CST-1368DR,9530,13341,15606,0.003,551
2019-05-18T03:23:41,42.805,6.029,CST-1368DR,9530,13342,15608,0.002,551
2019-05-18T03:26:42,42.805,6.029,CST-1368DR,9530,13342,15608,0.002,551
2019-05-18T03:29:43,42.805,6.029,CST-1368DR,9530,13342,15608,0.002,550
2019-05-18T03:32:45,42.805,6.029,CST-1368DR,9530,13342,15608,0.002,551
2019-05-18T03:35:46,42.805,6.029,CST-1368DR,9529,13343,15610,0.002,551
2019-05-18T03:38:48,42.805,6.029,CST-1368DR,9529,13342,15609,0.002,551
2019-05-18T03:41:49,42.805,6.029,CST-1368DR,9529,13343,15609,0.002,551
2019-05-18T03:44:50,42.805,6.029,CST-1368DR,9529,13341,15607,0.002,550
2019-05-18T03:47:52,42.805,6.029,CST-1368DR,9529,13342,15608,0.002,551
2019-05-18T03:50:53,42.805,6.029,CST-1368DR,9529,13342,15608,0.002,551
2019-05-18T03:53:55,42.805,6.029,CST-1368DR,9529,13342,15608,0.002,551
2019-05-18T03:56:56,42.805,6.029,CST-1368DR,9529,13343,15609,0.002,551
2019-05-18T03:59:57,42.805,6.029,CST-1368DR,9529,13339,15605,0.003,551
2019-05-18T04:02:59,42.805,6.029,CST-1368DR,9528,13340,15608,0.002,550
2019-05-18T04:06:00,42.805,6.029,CST-1368DR,9528,13340,15608,0.002,551
2019-05-18T04:09:02,42.805,6.029,CST-1368DR,9528,13339,15607,0.002,551
2019-05-18T04:12:03,42.805,6.029,CST-1368DR,9528,13339,15606,0.003,550
2019-05-18T04:15:05,42.805,6.029,CST-1368DR,9528,13340,15607,0.002,551
2019-05-18T04:18:06,42.805,6.029,CST-1368DR,9528,13339,15607,0.002,551
2019-05-18T04:21:07,42.805,6.029,CST-1368DR,9528,13338,15606,0.003,551
2019-05-18T04:24:09,42.805,6.029,CST-1368DR,9528,13338,15606,0.003,551
2019-05-18T04:27:10,42.805,6.029,CST-1368DR,9528,13339,15607,0.002,551
2019-05-18T04:30:12,42.805,6.029,CST-1368DR,9527,13340,15609,0.002,551
2019-05-18T04:33:13,42.805,6.029,CST-1368DR,9527,13340,15609,0.002,551
2019-05-18T04:36:14,42.805,6.029,CST-1368DR,9527,13340,15609,0.002,551
2019-05-18T04:39:16,42.805,6.029,CST-1368DR,9527,13338,15606,0.003,551
2019-05-18T04:42:17,42.805,6.029,CST-1368DR,9527,13336,15604,0.003,551
2019-05-18T04:45:19,42.805,6.029,CST-1368DR,9527,13340,15609,0.002,551
2019-05-18T04:48:20,42.805,6.029,CST-1368DR,9527,13333,15601,0.004,551
2019-05-18T04:51:21,42.805,6.029,CST-1368DR,9527,13338,15607,0.002,551
2019-05-18T04:54:23,42.805,6.029,CST-1368DR,9527,13338,15607,0.002,551
2019-05-18T04:57:24,42.805,6.029,CST-1368DR,9527,13339,15608,0.002,551
2019-05-18T05:00:26,42.805,6.029,CST-1368DR,9527,13335,15604,0.003,551
2019-05-18T05:03:27,42.805,6.029,CST-1368DR,9526,13335,15605,0.003,551
2019-05-18T05:06:28,42.805,6.029,CST-1368DR,9526,13339,15610,0.002,551
2019-05-18T05:09:30,42.805,6.029,CST-1368DR,9526,13338,15609,0.002,551
2019-05-18T05:12:31,42.805,6.029,CST-1368DR,9526,13336,15607,0.002,551
2019-05-18T05:15:33,42.805,6.029,CST-1368DR,9526,13338,15608,0.002,551
2019-05-18T05:18:34,42.805,6.029,CST-1368DR,9526,13337,15607,0.002,551
2019-05-18T05:21:36,42.805,6.029,CST-1368DR,9526,13337,15607,0.002,551
2019-05-18T05:24:37,42.805,6.029,CST-1368DR,9526,13338,15609,0.002,551
2019-05-18T05:27:38,42.805,6.029,CST-1368DR,9526,13338,15608,0.002,551
2019-05-18T05:30:40,42.805,6.029,CST-1368DR,9525,13336,15607,0.002,550
2019-05-18T05:33:41,42.805,6.029,CST-1368DR,9525,13337,15608,0.002,551
2019-05-18T05:36:43,42.805,6.029,CST-1368DR,9525,13336,15607,0.002,551
2019-05-18T05:39:44,42.805,6.029,CST-1368DR,9525,13337,15608,0.002,551
2019-05-18T05:42:45,42.805,6.029,CST-1368DR,9525,13336,15607,0.002,551
2019-05-18T05:45:47,42.805,6.029,CST-1368DR,9525,13334,15605,0.003,551
2019-05-18T05:48:48,42.805,6.029,CST-1368DR,9525,13337,15608,0.002,551
2019-05-18T05:51:50,42.805,6.029,CST-1368DR,9525,13336,15607,0.002,550
2019-05-18T05:54:51,42.805,6.029,CST-1368DR,9525,13336,15608,0.002,551
2019-05-18T05:57:52,42.805,6.029,CST-1368DR,9525,13335,15607,0.002,550
2019-05-18T06:00:54,42.805,6.029,CST-1368DR,9524,13334,15607,0.002,550
2019-05-18T06:03:55,42.805,6.029,CST-1368DR,9524,13336,15609,0.002,551
2019-05-18T06:06:57,42.805,6.029,CST-1368DR,9524,13335,15608,0.002,551
2019-05-18T06:09:58,42.805,6.029,CST-1368DR,9524,13334,15607,0.002,551
2019-05-18T06:12:59,42.805,6.029,CST-1368DR,9524,13330,15602,0.004,551
2019-05-18T06:16:01,42.805,6.029,CST-1368DR,9524,13334,15607,0.002,551
2019-05-18T06:19:02,42.805,6.029,CST-1368DR,9524,13334,15607,0.002,551
2019-05-18T06:22:04,42.805,6.029,CST-1368DR,9524,13333,15606,0.003,551
2019-05-18T06:25:05,42.805,6.029,CST-1368DR,9524,13336,15609,0.002,551
2019-05-18T06:28:07,42.805,6.029,CST-1368DR,9524,13334,15607,0.002,551
2019-05-18T06:31:08,42.805,6.029,CST-1368DR,9524,13333,15605,0.003,551
2019-05-18T06:34:09,42.805,6.029,CST-1368DR,9523,13333,15607,0.002,550
2019-05-18T06:37:11,42.805,6.029,CST-1368DR,9523,13332,15606,0.003,551
2019-05-18T06:40:12,42.805,6.029,CST-1368DR,9523,13332,15606,0.003,551
2019-05-18T06:43:14,42.805,6.029,CST-1368DR,9523,13333,15607,0.002,551
2019-05-18T06:46:15,42.805,6.029,CST-1368DR,9523,13334,15608,0.002,550
2019-05-18T06:49:16,42.805,6.029,CST-1368DR,9523,13332,15606,0.003,551
2019-05-18T06:52:18,42.805,6.029,CST-1368DR,9523,13333,15607,0.002,551
2019-05-18T06:55:19,42.805,6.029,CST-1368DR,9523,13334,15608,0.002,551
2019-05-18T06:58:21,42.805,6.029,CST-1368DR,9523,13333,15607,0.002,550
2019-05-18T07:01:22,42.805,6.029,CST-1368DR,9523,13331,15605,0.003,551
2019-05-18T07:04:23,42.805,6.029,CST-1368DR,9522,13330,15605,0.003,551
2019-05-18T07:07:25,42.805,6.029,CST-1368DR,9522,13331,15607,0.002,551
2019-05-18T07:10:26,42.805,6.029,CST-1368DR,9522,13332,15607,0.002,551
2019-05-18T07:13:28,42.805,6.029,CST-1368DR,9522,13332,15608,0.002,551
2019-05-18T07:16:29,42.805,6.029,CST-1368DR,9522,13324,15598,0.005,551
2019-05-18T07:19:31,42.805,6.029,CST-1368DR,9522,13332,15608,0.002,551
2019-05-18T07:22:32,42.805,6.029,CST-1368DR,9522,13332,15607,0.002,551
2019-05-18T07:25:33,42.805,6.029,CST-1368DR,9522,13329,15604,0.003,550
2019-05-18T07:28:35,42.805,6.029,CST-1368DR,9522,13331,15606,0.003,551
2019-05-18T07:31:36,42.805,6.029,CST-1368DR,9521,13330,15607,0.002,551
2019-05-18T07:34:38,42.805,6.029,CST-1368DR,9521,13331,15608,0.002,551
2019-05-18T07:37:39,42.805,6.029,CST-1368DR,9521,13330,15606,0.003,551
2019-05-18T07:40:40,42.805,6.029,CST-1368DR,9521,13330,15607,0.002,551
2019-05-18T07:43:42,42.805,6.029,CST-1368DR,9521,13330,15606,0.003,551
2019-05-18T07:46:43,42.805,6.029,CST-1368DR,9521,13330,15607,0.002,551
2019-05-18T07:49:45,42.805,6.029,CST-1368DR,9521,13331,15608,0.002,550
2019-05-18T07:52:46,42.805,6.029,CST-1368DR,9521,13331,15608,0.002,551
2019-05-18T07:55:47,42.805,6.029,CST-1368DR,9521,13329,15606,0.003,551
2019-05-18T07:58:49,42.805,6.029,CST-1368DR,9521,13328,15604,0.003,551
2019-05-18T08:01:50,42.805,6.029,CST-1368DR,9521,13330,15607,0.002,551
2019-05-18T08:04:52,42.805,6.029,CST-1368DR,9520,13329,15607,0.002,550
2019-05-18T08:07:53,42.805,6.029,CST-1368DR,9521,13328,15605,0.003,550
2019-05-18T08:10:54,42.805,6.029,CST-1368DR,9520,13328,15605,0.003,551
2019-05-18T08:13:56,42.805,6.029,CST-1368DR,9520,13327,15605,0.003,551
2019-05-18T08:16:57,42.805,6.029,CST-1368DR,9520,13329,15607,0.002,551
2019-05-18T08:19:59,42.805,6.029,CST-1368DR,9520,13326,15604,0.003,551
2019-05-18T08:23:00,42.805,6.029,CST-1368DR,9520,13329,15606,0.003,551
2019-05-18T08:26:02,42.805,6.029,CST-1368DR,9520,13328,15606,0.003,551
2019-05-18T08:29:03,42.805,6.029,CST-1368DR,9520,13329,15607,0.002,551
2019-05-18T08:32:04,42.805,6.029,CST-1368DR,9520,13326,15604,0.003,551
2019-05-18T08:35:06,42.805,6.029,CST-1368DR,9519,13328,15607,0.002,551
2019-05-18T08:38:07,42.805,6.029,CST-1368DR,9519,13325,15604,0.003,551
2019-05-18T08:41:09,42.805,6.029,CST-1368DR,9519,13326,15605,0.003,550
2019-05-18T08:44:10,42.805,6.029,CST-1368DR,9519,13327,15606,0.003,551
2019-05-18T08:47:11,42.805,6.029,CST-1368DR,9519,13323,15601,0.004,551
2019-05-18T08:50:13,42.805,6.029,CST-1368DR,9519,13327,15606,0.003,551
2019-05-18T08:53:14,42.805,6.029,CST-1368DR,9519,13317,15594,0.006,551
2019-05-18T08:56:16,42.805,6.029,CST-1368DR,9519,13322,15600,0.004,551
2019-05-18T08:59:17,42.805,6.029,CST-1368DR,9519,13327,15606,0.003,551
2019-05-18T09:02:18,42.805,6.029,CST-1368DR,9519,13328,15607,0.002,551
2019-05-18T09:05:20,42.805,6.029,CST-1368DR,9519,13325,15603,0.003,551
2019-05-18T09:08:21,42.805,6.029,CST-1368DR,9519,13326,15605,0.003,551
2019-05-18T09:11:23,42.805,6.029,CST-1368DR,9518,13326,15607,0.002,551
2019-05-18T09:14:24,42.805,6.029,CST-1368DR,9518,13325,15605,0.003,551
2019-05-18T09:17:26,42.805,6.029,CST-1368DR,9518,13321,15601,0.004,551
2019-05-18T09:20:27,42.805,6.029,CST-1368DR,9518,13324,15604,0.003,551
2019-05-18T09:23:28,42.805,6.029,CST-1368DR,9518,13325,15605,0.003,551
2019-05-18T09:26:30,42.805,6.029,CST-1368DR,9518,13325,15605,0.003,551
2019-05-18T09:29:31,42.805,6.029,CST-1368DR,9518,13322,15602,0.004,551
2019-05-18T09:32:33,42.805,6.029,CST-1368DR,9518,13324,15604,0.003,551
2019-05-18T09:35:34,42.805,6.029,CST-1368DR,9518,13322,15602,0.004,551
2019-05-18T09:38:35,42.805,6.029,CST-1368DR,9518,13322,15602,0.004,551
2019-05-18T09:41:37,42.805,6.029,CST-1368DR,9518,13325,15605,0.003,551
2019-05-18T09:44:38,42.805,6.029,CST-1368DR,9518,13319,15598,0.005,551
2019-05-18T09:47:40,42.805,6.029,CST-1368DR,9517,13320,15600,0.004,551
2019-05-18T09:50:41,42.805,6.029,CST-1368DR,9517,13325,15607,0.002,551
2019-05-18T09:53:42,42.805,6.029,CST-1368DR,9517,13325,15607,0.002,551
2019-05-18T09:56:44,42.805,6.029,CST-1368DR,9517,13324,15605,0.003,550
2019-05-18T09:59:45,42.805,6.029,CST-1368DR,9517,13318,15599,0.004,551
2019-05-18T10:02:47,42.805,6.029,CST-1368DR,9517,13322,15604,0.003,551
2019-05-18T10:05:48,42.805,6.029,CST-1368DR,9517,13325,15606,0.003,551
2019-05-18T10:08:49,42.805,6.029,CST-1368DR,9517,13320,15601,0.004,551
2019-05-18T10:11:51,42.805,6.029,CST-1368DR,9517,13324,15605,0.003,550
2019-05-18T10:14:52,42.805,6.029,CST-1368DR,9517,13322,15603,0.003,551
2019-05-18T10:17:54,42.805,6.029,CST-1368DR,9517,13322,15603,0.003,551
2019-05-18T10:20:55,42.805,6.029,CST-1368DR,9517,13321,15602,0.004,551
2019-05-18T10:23:57,42.805,6.029,CST-1368DR,9516,13322,15605,0.003,551
2019-05-18T10:26:58,42.805,6.029,CST-1368DR,9516,13323,15606,0.003,550
2019-05-18T10:29:59,42.805,6.029,CST-1368DR,9516,13322,15605,0.003,551
2019-05-18T10:33:01,42.805,6.029,CST-1368DR,9516,13323,15606,0.003,551
2019-05-18T10:36:02,42.805,6.029,CST-1368DR,9516,13322,15604,0.003,551
2019-05-18T10:39:04,42.805,6.029,CST-1368DR,9516,13320,15602,0.004,551
2019-05-18T10:42:05,42.805,6.029,CST-1368DR,9516,13320,15602,0.004,551
2019-05-18T10:45:06,42.805,6.029,CST-1368DR,9516,13319,15601,0.004,551
2019-05-18T10:48:08,42.805,6.029,CST-1368DR,9516,13320,15602,0.004,551
2019-05-18T10:51:09,42.805,6.029,CST-1368DR,9516,13322,15605,0.003,551
2019-05-18T10:54:11,42.805,6.029,CST-1368DR,9516,13321,15604,0.003,551
2019-05-18T10:57:12,42.805,6.029,CST-1368DR,9516,13321,15604,0.003,551
2019-05-18T11:00:13,42.805,6.029,CST-1368DR,9515,13319,15602,0.004,551
2019-05-18T11:03:15,42.805,6.029,CST-1368DR,9515,13321,15605,0.003,551
2019-05-18T11:06:16,42.805,6.029,CST-1368DR,9515,13322,15606,0.003,551
2019-05-18T11:09:18,42.805,6.029,CST-1368DR,9515,13319,15603,0.003,551
2019-05-18T11:12:19,42.805,6.029,CST-1368DR,9515,13313,15596,0.005,551
2019-05-18T11:15:20,42.805,6.029,CST-1368DR,9515,13319,15603,0.003,551
2019-05-18T11:18:22,42.805,6.029,CST-1368DR,9515,13317,15600,0.004,551
2019-05-18T11:21:23,42.805,6.029,CST-1368DR,9515,13320,15604,0.003,551
2019-05-18T11:24:25,42.805,6.029,CST-1368DR,9515,13320,15604,0.003,550
2019-05-18T11:27:26,42.805,6.029,CST-1368DR,9515,13319,15603,0.003,551
2019-05-18T11:30:28,42.805,6.029,CST-1368DR,9514,13319,15604,0.003,551
2019-05-18T11:33:29,42.805,6.029,CST-1368DR,9515,13319,15602,0.004,551
2019-05-18T11:36:30,42.805,6.029,CST-1368DR,9514,13320,15606,0.003,551
2019-05-18T11:39:32,42.805,6.029,CST-1368DR,9514,13318,15603,0.003,551
2019-05-18T11:42:33,42.805,6.029,CST-1368DR,9514,13321,15606,0.003,551
2019-05-18T11:45:35,42.805,6.029,CST-1368DR,9514,13319,15604,0.003,550
2019-05-18T11:48:36,42.805,6.029,CST-1368DR,9514,13319,15604,0.003,551
2019-05-18T11:51:37,42.805,6.029,CST-1368DR,9514,13320,15606,0.003,551
2019-05-18T11:54:39,42.805,6.029,CST-1368DR,9514,13320,15605,0.003,551
2019-05-18T11:57:40,42.805,6.029,CST-1368DR,9514,13319,15604,0.003,551
2019-05-18T12:00:42,42.805,6.029,CST-1368DR,9514,13321,15607,0.002,551
2019-05-18T12:03:43,42.805,6.029,CST-1368DR,9514,13318,15603,0.003,551
2019-05-18T12:06:44,42.805,6.029,CST-1368DR,9514,13317,15602,0.004,550
2019-05-18T12:09:46,42.805,6.029,CST-1368DR,9514,13319,15604,0.003,551
2019-05-18T12:12:47,42.805,6.029,CST-1368DR,9514,13320,15606,0.003,551
2019-05-18T12:15:49,42.805,6.029,CST-1368DR,9513,13317,15603,0.003,551
2019-05-18T12:18:50,42.805,6.029,CST-1368DR,9513,13320,15607,0.002,551
2019-05-18T12:21:51,42.805,6.029,CST-1368DR,9513,13319,15605,0.003,551
2019-05-18T12:24:53,42.805,6.029,CST-1368DR,9513,13318,15605,0.003,551
2019-05-18T12:27:54,42.805,6.029,CST-1368DR,9513,13319,15605,0.003,551
2019-05-18T12:30:56,42.805,6.029,CST-1368DR,9513,13318,15605,0.003,551
2019-05-18T12:33:57,42.805,6.029,CST-1368DR,9513,13319,15606,0.003,551
2019-05-18T12:36:59,42.805,6.029,CST-1368DR,9513,13315,15601,0.004,551
2019-05-18T12:40:00,42.805,6.029,CST-1368DR,9513,13319,15605,0.003,550
2019-05-18T12:43:01,42.805,6.029,CST-1368DR,9513,13318,15605,0.003,551
2019-05-18T12:46:03,42.805,6.029,CST-1368DR,9513,13319,15606,0.003,551
2019-05-18T12:49:04,42.805,6.029,CST-1368DR,9513,13317,15603,0.003,551
2019-05-18T12:52:06,42.805,6.029,CST-1368DR,9512,13317,15605,0.003,551
2019-05-18T12:55:07,42.805,6.029,CST-1368DR,9512,13313,15600,0.004,551
2019-05-18T12:58:08,42.805,6.029,CST-1368DR,9512,13317,15604,0.003,551
2019-05-18T13:01:10,42.805,6.029,CST-1368DR,9512,13317,15604,0.003,551
2019-05-18T13:04:11,42.805,6.029,CST-1368DR,9512,13307,15594,0.006,551
2019-05-18T13:07:13,42.805,6.029,CST-1368DR,9512,13318,15606,0.003,551
2019-05-18T13:10:14,42.805,6.029,CST-1368DR,9512,13319,15607,0.002,551
2019-05-18T13:13:15,42.805,6.029,CST-1368DR,9512,13318,15606,0.003,551
2019-05-18T13:16:17,42.805,6.029,CST-1368DR,9512,13316,15603,0.003,551
2019-05-18T13:19:18,42.805,6.029,CST-1368DR,9512,13316,15604,0.003,551
2019-05-18T13:22:20,42.805,6.029,CST-1368DR,9512,13314,15601,0.004,551
2019-05-18T13:25:21,42.805,6.029,CST-1368DR,9511,13317,15606,0.003,551
2019-05-18T13:28:23,42.805,6.029,CST-1368DR,9511,13316,15605,0.003,551
2019-05-18T13:31:24,42.805,6.029,CST-1368DR,9511,13317,15606,0.003,551
2019-05-18T13:34:25,42.805,6.029,CST-1368DR,9511,13315,15604,0.003,551
2019-05-18T13:37:27,42.805,6.029,CST-1368DR,9511,13315,15604,0.003,551
2019-05-18T13:40:28,42.805,6.029,CST-1368DR,9511,13316,15605,0.003,550
2019-05-18T13:43:30,42.805,6.029,CST-1368DR,9511,13315,15604,0.003,551
2019-05-18T13:46:31,42.805,6.029,CST-1368DR,9511,13316,15605,0.003,551
2019-05-18T13:49:32,42.805,6.029,CST-1368DR,9511,13316,15605,0.003,551
2019-05-18T13:52:34,42.805,6.029,CST-1368DR,9511,13309,15596,0.005,551
2019-05-18T13:55:35,42.805,6.029,CST-1368DR,9511,13316,15605,0.003,551
2019-05-18T13:58:37,42.805,6.029,CST-1368DR,9511,13316,15605,0.003,551
2019-05-18T14:01:38,42.805,6.029,CST-1368DR,9511,13315,15604,0.003,551
2019-05-18T14:04:39,42.805,6.029,CST-1368DR,9511,13316,15605,0.003,551
2019-05-18T14:07:41,42.805,6.029,CST-1368DR,9510,13313,15603,0.003,550
2019-05-18T14:10:42,42.805,6.029,CST-1368DR,9510,13313,15603,0.003,551
2019-05-18T14:13:44,42.805,6.029,CST-1368DR,9510,13315,15605,0.003,551
2019-05-18T14:16:45,42.805,6.029,CST-1368DR,9510,13315,15605,0.003,550
2019-05-18T14:19:46,42.805,6.029,CST-1368DR,9510,13314,15605,0.003,551
2019-05-18T14:22:48,42.805,6.029,CST-1368DR,9510,13313,15604,0.003,551
2019-05-18T14:25:49,42.805,6.029,CST-1368DR,9510,13314,15605,0.003,550
2019-05-18T14:28:51,42.805,6.029,CST-1368DR,9510,13313,15604,0.003,551
2019-05-18T14:31:52,42.805,6.029,CST-1368DR,9510,13312,15602,0.004,551
2019-05-18T14:34:54,42.805,6.029,CST-1368DR,9510,13314,15605,0.003,551
2019-05-18T14:37:55,42.805,6.029,CST-1368DR,9510,13309,15598,0.005,551
2019-05-18T14:40:56,42.805,6.029,CST-1368DR,9510,13313,15603,0.003,551
2019-05-18T14:43:58,42.805,6.029,CST-1368DR,9510,13312,15601,0.004,551
2019-05-18T14:46:59,42.805,6.029,CST-1368DR,9510,13312,15602,0.004,550
2019-05-18T14:50:01,42.805,6.029,CST-1368DR,9509,13311,15602,0.004,551
2019-05-18T14:53:02,42.805,6.029,CST-1368DR,9509,13313,15605,0.003,551
2019-05-18T14:56:03,42.805,6.029,CST-1368DR,9509,13311,15603,0.003,551
2019-05-18T14:59:05,42.805,6.029,CST-1368DR,9509,13313,15605,0.003,551
2019-05-18T15:02:06,42.805,6.029,CST-1368DR,9509,13308,15599,0.004,551
2019-05-18T15:05:08,42.805,6.029,CST-1368DR,9509,13309,15600,0.004,551
2019-05-18T15:08:09,42.805,6.029,CST-1368DR,9509,13312,15603,0.003,551
2019-05-18T15:11:10,42.805,6.029,CST-1368DR,9509,13313,15604,0.003,550
2019-05-18T15:14:12,42.805,6.029,CST-1368DR,9509,13312,15603,0.003,551
2019-05-18T15:17:13,42.805,6.029,CST-1368DR,9509,13313,15604,0.003,551
2019-05-18T15:20:15,42.805,6.029,CST-1368DR,9509,13310,15601,0.004,551
2019-05-18T15:23:16,42.805,6.029,CST-1368DR,9509,13309,15600,0.004,551
2019-05-18T15:26:17,42.805,6.029,CST-1368DR,9509,13311,15603,0.003,551
2019-05-18T15:29:19,42.805,6.029,CST-1368DR,9508,13312,15605,0.003,550
2019-05-18T15:32:20,42.805,6.029,CST-1368DR,9508,13311,15604,0.003,551
2019-05-18T15:35:22,42.805,6.029,CST-1368DR,9508,13312,15605,0.003,551
2019-05-18T15:38:23,42.805,6.029,CST-1368DR,9508,13312,15605,0.003,551
2019-05-18T15:41:25,42.805,6.029,CST-1368DR,9508,13313,15606,0.003,551
2019-05-18T15:44:26,42.805,6.029,CST-1368DR,9508,13311,15603,0.003,551
2019-05-18T15:47:27,42.805,6.029,CST-1368DR,9508,13312,15605,0.003,551
2019-05-18T15:50:29,42.805,6.029,CST-1368DR,9508,13312,15604,0.003,551
2019-05-18T15:53:30,42.805,6.029,CST-1368DR,9508,13312,15605,0.003,551
2019-05-18T15:56:32,42.805,6.029,CST-1368DR,9508,13312,15605,0.003,551
2019-05-18T15:59:33,42.805,6.029,CST-1368DR,9508,13306,15598,0.005,551
2019-05-18T16:02:34,42.805,6.029,CST-1368DR,9508,13310,15602,0.004,551
2019-05-18T16:05:36,42.805,6.029,CST-1368DR,9508,13312,15605,0.003,551
2019-05-18T16:08:37,42.805,6.029,CST-1368DR,9508,13310,15602,0.004,551
2019-05-18T16:11:39,42.805,6.029,CST-1368DR,9508,13308,15601,0.004,551
2019-05-18T16:14:40,42.805,6.029,CST-1368DR,9507,13308,15602,0.004,551
2019-05-18T16:17:41,42.805,6.029,CST-1368DR,9507,13310,15604,0.003,551
2019-05-18T16:20:43,42.805,6.029,CST-1368DR,9507,13312,15606,0.003,551
2019-05-18T16:23:44,42.805,6.029,CST-1368DR,9507,13311,15605,0.003,550
2019-05-18T16:26:46,42.805,6.029,CST-1368DR,9507,13309,15603,0.003,551
2019-05-18T16:29:47,42.805,6.029,CST-1368DR,9507,13311,15605,0.003,551
2019-05-18T16:32:48,42.805,6.029,CST-1368DR,9507,13311,15605,0.003,551
2019-05-18T16:35:50,42.805,6.029,CST-1368DR,9507,13310,15604,0.003,551